Regional Weather Roundup
Issued by NWS Cleveland, OH

Home | Current Version | Previous Version | Graphics & Text | Print | Product List | Glossary On
Versions: 1 2 3 4 5 6 7 8 9 10 11 12 13 14 15 16 17 18 19 20 21 22 23 24 25 26 27 28 29 30 31 32 33 34 35 36 37 38 39 40 41 42 43 44 45 46 47 48 49 50
000
ASUS41 KCLE 290400
RWRCLE
OHIO REGIONAL WEATHER ROUNDUP
NATIONAL WEATHER SERVICE WILMINGTON, OH
1200 AM EDT THU JUN 29 2017

NOTE: "FAIR" INDICATES FEW OR NO CLOUDS BELOW 12,000 FEET WITH NO
SIGNIFICANT WEATHER AND/OR OBSTRUCTIONS TO VISIBILITY.

OHZ001>008-015>018-024>027-034-035-043-044-290500-
   NORTHWEST OHIO

CITY           SKY/WX    TMP DP  RH WIND       PRES   REMARKS
DEFIANCE       FAIR      70  53  54 S13G20    29.94S
FINDLAY        FAIR      68  52  56 S12       29.98F
TOLEDO EXPRESS FAIR      70  55  59 S9        29.95R
TOLEDO EXEC    FAIR      72  54  53 S13       29.97R
LIMA           FAIR      68  54  60 S10       30.00S
$$

OHZ009>014-019>023-028>033-038-089-290500-
   NORTHEAST OHIO

CITY           SKY/WX    TMP DP  RH WIND       PRES   REMARKS
CLE-HOPKINS    CLOUDY    73  53  49 S14G22    30.03S
CLE-LAKEFRONT  FAIR      72  52  49 S13G23    30.00S
CUY CO. ARPT   NOT AVBL
LORAIN-ELYRIA  MOCLDY    69  50  50 S13       30.01F
ASHTABULA      CLOUDY    67  54  63 S7        30.04F
AKRON-CANTON   FAIR      68  52  56 S12       30.06S
WOOSTER        NOT AVBL
MANSFIELD      FAIR      65  53  65 S12       30.04S
YOUNGSTOWN     CLOUDY    67  52  58 S7        30.07R
$$

OHZ042-051>053-060>062-070>072-077>081-290500-
  SOUTHWEST OHIO

CITY           SKY/WX    TMP DP  RH WIND       PRES   REMARKS
CINC-COVINGTON CLOUDY    65  58  78 S7        30.04R
CINC-LUNKEN    FAIR      64  60  87 CALM      30.04R
HAMILTON       FAIR      64  58  80 CALM      30.04R
DAYTON         NOT AVBL
WRIGHT-PAT AFB NOT AVBL
DAYTON GENERAL FAIR      66  55  67 S6        30.04R
WILMINGTON     FAIR      64  57  78 S5        30.05R
$$

OHZ036-037-039>041-045>050-054>059-063>069-073>076-082>088-290500-
  CENTRAL AND SOUTHEAST OHIO

CITY           SKY/WX    TMP DP  RH WIND       PRES   REMARKS
COLUMBUS       CLOUDY    68  55  63 SE5       30.05R
OSU AIRPORT    FAIR      68  56  65 S7        30.04S
BOLTON FIELD   NOT AVBL
RICKENBACK AFB NOT AVBL
NEWARK         FAIR      60  55  83 CALM      30.06R
MARION         FAIR      65  54  67 S10       30.03R
LANCASTER      FAIR      61  54  77 S3        30.06S
ZANESVILLE     FAIR      63  54  72 CALM      30.07S
NEW PHILLY     FAIR      62  56  80 SE3       30.08R
$$




USA.gov is the U.S. government's official web portal to all federal, state and local government web resources and services.